Regional Weather Roundup
Issued by NWS Little Rock, AR

Home | Current Version | Previous Version | Graphics & Text | Print | Product List | Glossary On
Versions: 1 2 3 4 5 6 7 8 9 10 11 12 13 14 15 16 17 18 19 20 21 22 23 24 25 26 27 28 29 30 31 32
000
ASUS44 KLZK 271305
RWRLZK

WEATHER ROUNDUP FOR ARKANSAS
NATIONAL WEATHER SERVICE LITTLE ROCK AR
800 AM CDT TUE SEP 27 2016

NOTE: "FAIR" INDICATES FEW OR NO CLOUDS BELOW 12,000 FEET WITH NO
SIGNIFICANT WEATHER AND/OR OBSTRUCTIONS TO VISIBILITY.

ARZ001-003-010-029-271400-
NORTHWEST ARKANSAS

CITY           SKY/WX    TMP DP  RH WIND       PRES   REMARKS
FAYETTEVILLE   CLEAR     45  45 100 CALM      30.15R
FORT SMITH     PTCLDY    54  50  86 CALM      30.13R
HARRISON       SUNNY     52  43  71 W3        30.13R
BENTONVILLE    CLEAR     48  45  87 CALM      30.14R
ROGERS         CLEAR     50  48  93 CALM      30.15R
SILOAM SPGS    CLEAR     46  37  71 CALM      30.15R
HIGHFILL       CLEAR     49  47  93 CALM      30.14S
SPRINGDALE     CLEAR     50  48  93 CALM      30.16R
$$

ARZ004-005-016-271400-
NORTH CENTRAL ARKANSAS

CITY           SKY/WX    TMP DP  RH WIND       PRES   REMARKS
BATESVILLE     SUNNY     52  46  82 NW3       30.10S
FLIPPIN        SUNNY     48  45  87 CALM      30.10R
MTN HOME       FOG       52  52 100 CALM      30.11R VSB<1/4
$$

ARZ040-041-271400-
WEST CENTRAL ARKANSAS

CITY           SKY/WX    TMP DP  RH WIND       PRES   REMARKS
MENA           PTCLDY    52  52 100 CALM      30.14R
MOUNT IDA      MOSUNNY   54  52  93 CALM      30.10R
$$

ARZ009-017-025-026-028-271400-
NORTHEAST ARKANSAS

CITY           SKY/WX    TMP DP  RH WIND       PRES   REMARKS
CORNING          N/A     50  50 100 NW5       30.08S
JONESBORO      SUNNY     55  50  83 CALM      30.08R
NEWPORT        SUNNY     53  50  89 W5        30.09S
WALNUT RIDGE   SUNNY     54  46  76 CALM      30.08R
BLYTHEVILLE    SUNNY     55  52  89 CALM      30.08R
$$

ARZ022-023-033-042-044-271400-
CENTRAL ARKANSAS

CITY           SKY/WX    TMP DP  RH WIND       PRES   REMARKS
LITTLE ROCK    CLOUDY    62  51  67 NW6       30.10S
N LITTLE ROCK    N/A     58  51  80 NW5       30.09R
JACKSONVILLE   SUNNY     55  52  89 W5        30.10R
SEARCY         SUNNY     54  52  93 CALM      30.11S
HOT SPRINGS    CLOUDY    57  53  86 NW3       30.11R
RUSSELLVILLE   SUNNY     53  49  86 CALM      30.12R
$$

ARZ036-271400-
EAST ARKANSAS

CITY           SKY/WX    TMP DP  RH WIND       PRES   REMARKS
WEST MEMPHIS   SUNNY     57  54  89 NW3       30.05F
$$

ARZ050-053-066-070-073-271400-
SOUTHWEST ARKANSAS

CITY           SKY/WX    TMP DP  RH WIND       PRES   REMARKS
ARKADELPHIA    FAIR      57  56  96 CALM      30.11R
TEXARKANA      CLOUDY    66  57  72 N6        30.10R
EL DORADO      PTSUNNY   62  58  86 N5        30.08S
DE QUEEN       FOG       55  55 100 CALM      30.09S VSB 3/4
$$

ARZ056-057-069-271400-
SOUTHEAST ARKANSAS

CITY           SKY/WX    TMP DP  RH WIND       PRES   REMARKS
PINE BLUFF     MOSUNNY   59  53  80 N5        30.09R
STUTTGART      MOSUNNY   55  48  76 NW5       30.09S
MONTICELLO     MOSUNNY   62  55  77 VRB3      30.07R

$$






USA.gov is the U.S. government's official web portal to all federal, state and local government web resources and services.